Location: Gro�wechsungen
(51.4926°N, 10.6901°E)
Time: 11:47:06
(UTC+00:00)

NOSS 8 (F) - Pass Details

Date: 18 September 2020
Orbit: 384 x 1787 km, 63.3° (Epoch: 30 October)

Event Time Altitude Azimuth Distance (km) Brightness Sun altitude
Rises 18:06:54 0° 217° (SW) 2,442 8.5 -7.5°
Reaches altitude 10° 18:09:05 10° 214° (SW) 1,485 7.3 -7.8°
Maximum altitude 18:12:12 66° 132° (SE) 429 4.1 -8.3°
Drops below altitude 10° 18:15:12 10° 49° (NE) 1,431 6.6 -8.7°
Sets 18:17:16 0° 47° (NE) 2,338 7.7 -9.0°
